IRIDIUM 154

Last updated on Fri Sep 11 2026 00:03:06 GMT+0000 (Coordinated Universal Time)

1 43574U 18061F 26253.62826758 .00000134 00000+0 40745-4 0 9992 2 43574 86.4000 21.0711 0002066 92.0358 268.1074 14.34217791425655
UTC large
Height (km)
Speed (km/s)
/
Latitude / Longitude
Inclination (degrees)
Orbital Period (minutes)
Azimuth
Elevation
Range (km)
Doppler Factor

Next 0 passes for location: London (51.5072 / 0.1276)

No passes found over London.
IRIDIUM 154